* Astronomy
Members Login
Username
Password
Login
Remember Me
New Member
Lost Account Info?
Main Page
Search
Search
Advanced Search
Links
Blob on twitter
Chat
Chat Room
Search
Newspaper
Wiki
Help
FAQ
More?
AstroForum
NASA TV
Streaming video by Ustream
NASA TV Audio
NASA Media Channel
ISS Live webcam stream
User Details
Star Map
Calendar
Arcade
Recent Posts
Home
->
Astronomy News
->
Asteroids 2018
->
Asteroid A/2018 F4
Start A New Topic
Reply
Post Info
TOPIC: Asteroid A/2018 F4
Blobrana
L
Posts: 131433
Date:
Mar 28 21:27 2018
Asteroid A/2018 F4
Permalink
Printer Friendly
Orbital Elements at Epoch 2458200.5 (2018-Mar-23.0) TDB
Reference: JPL 1 (heliocentric ecliptic J2000)
Element
Value
Uncertainty (1-sigma)
Units
e
1.056229275005864
0.097027
a
-60.85396840329303
105.78
au
q
3.421774524546919
0.050204
au
i
79.23469514882215
1.7004
deg
node
26.50717976928077
0.019239
deg
peri
262.5458882360333
0.97565
deg
M
-1.263503141494575
3.2487
deg
t
p
2458809.063091058822
(2019-Nov-21.56309106)
22.128
JED
period
n/a
n/a
n/a
n/a
d
yr
n
.002076207315327391
0.0054136
deg/d
Q
n/a
n/a
au
Orbit Determination Parameters
# obs. used (total)
66
data-arc span
11 days
first obs. used
2018-03-17
last obs. used
2018-03-28
planetary ephem.
DE431
SB-pert. ephem.
SB431-N16
fit RMS
.53506
data source
ORB
producer
Otto Matic
solution date
2018-Mar-28 09:14:04
Additional Information
Earth MOID
= 3.14165 au
Jupiter MOID
= .615659 au
See more
__________________
Page 1 of 1
sorted by
Oldest First
Newest First
Quick Reply
Please log in to post quick replies.
Home
->
Astronomy News
->
Asteroids 2018
->
Asteroid A/2018 F4
Subscribe
Jump To:
--- News ---
Meteorite News
Cosmology News
Events
Comets 2017
Earth
UFOs
Asteroids
Exoplanets
Meetings
Solar
Exhibition
Mars
Uranus
Mercury
Pluto
Venus
Meteors 2013
Solar 2013
Comets 2013
Solar 2014
UFO 2014
Solar 2015
Meteors 2015
Asteroids 2015
Comets 2015
September
November
December
January
UFOs 2015
June
August
Meteors 2016
UFOs 2016
Meteors 2018
Astronomy News
Mission News
Stars/galaxy News
Physics News
General news
Solar System
Asteroids 2017
Meteorites 2017
Meteors 2017
UFOs 2017
Comets
Earthquakes
Satellites
Galaxies
Supernovae
Weather
Observatories
Space missions
Volcano
Gamma-ray burst
Stars
Missile
Chemistry
Satellite Re-entry
Meteors
Jupiter
The Moon
Meteorites
Neptune
Deimos
Saturn
Asteroids 2012
Meteors 2012
UFOs 2012
Meteorites 2012
Phobos
Asteroids 2013
Meteorites 2013
UFOs 2013
Plutinos
Sun
Meteors 2014
Meteorites 2014
Asteroids 2014
Comets 2014
May
Historical Calendar
October
February
Meteorites 2015
March
April
July
Comets 2016
Meteorites 2016
Asteroids 2016
Solar 2016
Solar 2017
Asteroids 2018
Comets 2018
Meteorites 2018
Solar 2018
UFOs 2018
--- Dropzone ---
Observations
Telescopes
Moon 2017
Binoculars
Eyepiece
App:roved
Moon 2018
Computers
Software
Cameras
Moon 2016
--- Media ---
Audio Visual
YouTube
Escape pod
Books
Art gallery
Videos
Music
KMZ
--- Coffee house ---
All queries go here
Trash
Off Topic
Links
People
The Bazaar
--- Agora ---
Test
Banned
Feedback
Blog
Forum help
Create your own FREE Forum
Report Abuse